| time (UTC) | temp C | wind direction | speed KPH | gust KPH | rain 1hr cm | rain 24hr cm | rain mn cm | humidity % | barometer mb |
| 20260510231145 | 9 | 24 | 11.3 | 24.1 | 0.00 | 0.00 | 0.00 | 25 | 1011.3 |
| 20260510230204 | 9 | 26 | 11.3 | 25.7 | 0.00 | 0.00 | 0.00 | 27 | 1011.3 |
| 20260510224015 | 9 | 39 | 11.3 | 24.1 | 0.00 | 0.00 | 0.00 | 29 | 1011.4 |
| 20260510223037 | 10 | 5 | 12.9 | 25.7 | 0.00 | 0.00 | 0.00 | 30 | 1011.5 |
| 20260510222032 | 10 | 22 | 12.9 | 25.7 | 0.00 | 0.00 | 0.00 | 33 | 1011.6 |
| 20260510221025 | 10 | 21 | 12.9 | 27.4 | 0.00 | 0.00 | 0.00 | 34 | 1011.8 |
| 20260510214932 | 10 | 38 | 14.5 | 30.6 | 0.00 | 0.00 | 0.00 | 34 | 1012.1 |
| 20260510213858 | 10 | 45 | 14.5 | 33.8 | 0.00 | 0.00 | 0.00 | 32 | 1012.2 |
| 20260510212841 | 10 | 5 | 16.1 | 33.8 | 0.00 | 0.00 | 0.00 | 32 | 1012.2 |
| 20260510211812 | 10 | 355 | 17.7 | 32.2 | 0.00 | 0.00 | 0.00 | 30 | 1012.2 |
| 20260510210821 | 10 | 35 | 16.1 | 32.2 | 0.00 | 0.00 | 0.00 | 30 | 1012.4 |
| 20260510205804 | 10 | 59 | 16.1 | 35.4 | 0.00 | 0.00 | 0.00 | 24 | 1012.5 |
| 20260510204754 | 10 | 39 | 19.3 | 35.4 | 0.00 | 0.00 | 0.00 | 26 | 1012.6 |
| 20260510203812 | 10 | 49 | 14.5 | 29.0 | 0.00 | 0.00 | 0.00 | 22 | 1012.5 |
| 20260510202800 | 10 | 26 | 17.7 | 30.6 | 0.00 | 0.00 | 0.00 | 25 | 1012.6 |
| 20260510201822 | 10 | 24 | 19.3 | 33.8 | 0.00 | 0.00 | 0.00 | 26 | 1012.6 |
| 20260510195642 | 10 | 12 | 17.7 | 33.8 | 0.00 | 0.00 | 0.00 | 23 | 1012.4 |
| 20260510193436 | 10 | 67 | 17.7 | 33.8 | 0.00 | 0.00 | 0.00 | 18 | 1012.5 |
| 20260510192433 | 10 | 43 | 17.7 | 33.8 | 0.00 | 0.00 | 0.00 | 23 | 1012.6 |
| 20260510191456 | 10 | 30 | 16.1 | 29.0 | 0.00 | 0.00 | 0.00 | 20 | 1012.6 |
| 20260510185309 | 10 | 64 | 17.7 | 37.0 | 0.00 | 0.00 | 0.00 | 20 | 1012.6 |
| 20260510183120 | 10 | 56 | 17.7 | 40.2 | 0.00 | 0.00 | 0.00 | 18 | 1012.7 |
| 20260510180928 | 11 | 34 | 17.7 | 33.8 | 0.00 | 0.00 | 0.00 | 9 | 1012.8 |
| 20260510175950 | 11 | 38 | 20.9 | 37.0 | 0.00 | 0.00 | 0.00 | 9 | 1012.7 |
| 20260510175010 | 11 | 11 | 17.7 | 38.6 | 0.00 | 0.00 | 0.00 | 11 | 1012.8 |
| 20260510174034 | 11 | 31 | 19.3 | 38.6 | 0.00 | 0.00 | 0.00 | 9 | 1013.0 |
| 20260510173058 | 11 | 17 | 17.7 | 33.8 | 0.00 | 0.00 | 0.00 | 4 | 1013.0 |
| 20260510172053 | 11 | 34 | 19.3 | 40.2 | 0.00 | 0.00 | 0.00 | 4 | 1013.0 |
| 20260510171107 | 11 | 13 | 19.3 | 40.2 | 0.00 | 0.00 | 0.00 | 8 | 1013.1 |
| 20260510170052 | 11 | 37 | 16.1 | 29.0 | 0.00 | 0.00 | 0.00 | 6 | 1013.3 |
| 20260510165033 | 11 | 61 | 19.3 | 33.8 | 0.00 | 0.00 | 0.00 | 12 | 1013.5 |
| 20260510164008 | 11 | 17 | 17.7 | 37.0 | 0.00 | 0.00 | 0.00 | 5 | 1013.6 |
| 20260510162953 | 11 | 49 | 20.9 | 38.6 | 0.00 | 0.00 | 0.00 | 7 | 1013.7 |
| 20260510162004 | 11 | 30 | 20.9 | 38.6 | 0.00 | 0.00 | 0.00 | 1 | 1013.7 |
| 20260510161021 | 11 | 77 | 20.9 | 37.0 | 0.00 | 0.00 | 0.00 | 1 | 1013.8 |
| 20260510154934 | 11 | 32 | 17.7 | 30.6 | 0.00 | 0.00 | 0.00 | 1 | 1014.0 |
| 20260510153912 | 11 | 355 | 19.3 | 33.8 | 0.00 | 0.00 | 0.00 | 1 | 1013.9 |
| 20260510152850 | 11 | 71 | 20.9 | 41.8 | 0.00 | 0.00 | 0.00 | 1 | 1014.0 |
| 20260510151821 | 11 | 64 | 19.3 | 41.8 | 0.00 | 0.00 | 0.00 | 1 | 1014.1 |
| 20260510145732 | 12 | 23 | 19.3 | 40.2 | 0.00 | 0.00 | 0.00 | 1 | 1014.2 |
| 20260510144740 | 12 | 92 | 20.9 | 38.6 | 0.00 | 0.00 | 0.00 | 1 | 1014.2 |
| 20260510143747 | 12 | 64 | 20.9 | 37.0 | 0.00 | 0.00 | 0.00 | 1 | 1014.3 |
| 20260510142809 | 12 | 25 | 20.9 | 37.0 | 0.00 | 0.00 | 0.00 | 1 | 1014.5 |
| 20260510141818 | 12 | 30 | 19.3 | 40.2 | 0.00 | 0.00 | 0.00 | 1 | 1014.6 |
| 20260510140815 | 12 | 34 | 20.9 | 40.2 | 0.00 | 0.00 | 0.00 | 1 | 1014.7 |
| 20260510135838 | 12 | 48 | 22.5 | 35.4 | 0.00 | 0.00 | 0.00 | 10 | 1014.7 |
| 20260510134843 | 12 | 58 | 19.3 | 33.8 | 0.00 | 0.00 | 0.00 | 7 | 1014.7 |
| 20260510132752 | 12 | 21 | 17.7 | 35.4 | 0.00 | 0.00 | 0.00 | 11 | 1015.0 |
| 20260510131724 | 12 | 38 | 17.7 | 35.4 | 0.00 | 0.00 | 0.00 | 9 | 1015.0 |
| 20260510130720 | 12 | 49 | 20.9 | 35.4 | 0.00 | 0.00 | 0.00 | 12 | 1015.1 |
| 20260510125655 | 13 | 19 | 17.7 | 35.4 | 0.00 | 0.00 | 0.00 | 15 | 1015.2 |
| 20260510124701 | 12 | 59 | 22.5 | 37.0 | 0.00 | 0.00 | 0.00 | 19 | 1015.2 |
| 20260510123707 | 12 | 77 | 20.9 | 37.0 | 0.00 | 0.00 | 0.00 | 14 | 1015.4 |
| 20260510122722 | 12 | 30 | 20.9 | 40.2 | 0.00 | 0.00 | 0.00 | 8 | 1015.5 |
| 20260510121651 | 12 | 65 | 22.5 | 40.2 | 0.00 | 0.00 | 0.00 | 7 | 1015.6 |
| 20260510120703 | 12 | 51 | 20.9 | 35.4 | 0.00 | 0.00 | 0.00 | 1 | 1015.7 |
| 20260510115701 | 12 | 54 | 19.3 | 40.2 | 0.00 | 0.00 | 0.00 | 1 | 1015.7 |
| 20260510114726 | 12 | 51 | 22.5 | 40.2 | 0.00 | 0.00 | 0.00 | 1 | 1015.8 |
| 20260510113729 | 12 | 62 | 20.9 | 41.8 | 0.00 | 0.00 | 0.00 | 1 | 1015.5 |
| 20260510112737 | 12 | 16 | 24.1 | 41.8 | 0.00 | 0.00 | 0.00 | 1 | 1015.5 |
| 20260510110633 | 12 | 31 | 20.9 | 37.0 | 0.00 | 0.00 | 0.00 | 1 | 1015.6 |
| 20260510105606 | 12 | 50 | 20.9 | 37.0 | 0.00 | 0.00 | 0.00 | 1 | 1015.6 |
| 20260510104544 | 12 | 11 | 22.5 | 37.0 | 0.00 | 0.00 | 0.00 | 1 | 1015.7 |
| 20260510103534 | 13 | 71 | 20.9 | 41.8 | 0.00 | 0.00 | 0.00 | 1 | 1015.7 |
| 20260510102523 | 13 | 45 | 22.5 | 41.8 | 0.00 | 0.00 | 0.00 | 1 | 1015.7 |
| 20260510100332 | 13 | 5 | 20.9 | 38.6 | 0.00 | 0.00 | 0.00 | 1 | 1015.7 |
| 20260510095300 | 13 | 65 | 20.9 | 41.8 | 0.00 | 0.00 | 0.00 | 1 | 1015.7 |
| 20260510094246 | 13 | 74 | 20.9 | 41.8 | 0.00 | 0.00 | 0.00 | 1 | 1015.7 |
| 20260510092156 | 12 | 30 | 20.9 | 35.4 | 0.00 | 0.00 | 0.00 | 1 | 1016.0 |
| 20260510091207 | 12 | 55 | 20.9 | 37.0 | 0.00 | 0.00 | 0.00 | 1 | 1016.1 |
| 20260510085017 | 12 | 46 | 20.9 | 35.4 | 0.00 | 0.00 | 0.00 | 1 | 1015.9 |
| 20260510084024 | 12 | 20 | 19.3 | 38.6 | 0.00 | 0.00 | 0.00 | 1 | 1015.9 |
| 20260510083037 | 12 | 36 | 19.3 | 38.6 | 0.00 | 0.00 | 0.00 | 1 | 1015.8 |
| 20260510082054 | 12 | 40 | 17.7 | 38.6 | 0.00 | 0.00 | 0.00 | 1 | 1015.9 |
| 20260510081045 | 12 | 17 | 19.3 | 38.6 | 0.00 | 0.00 | 0.00 | 1 | 1015.9 |
| 20260510080016 | 12 | 68 | 16.1 | 32.2 | 0.00 | 0.00 | 0.00 | 1 | 1015.9 |
| 20260510073849 | 12 | 32 | 16.1 | 29.0 | 0.00 | 0.00 | 0.00 | 1 | 1016.1 |
| 20260510072817 | 12 | 84 | 14.5 | 25.7 | 0.00 | 0.00 | 0.00 | 1 | 1016.0 |
| 20260510070643 | 12 | 80 | 14.5 | 30.6 | 0.00 | 0.00 | 0.00 | 1 | 1016.2 |
| 20260510064550 | 12 | 90 | 12.9 | 29.0 | 0.00 | 0.00 | 0.00 | 1 | 1016.1 |
| 20260510063545 | 12 | 53 | 14.5 | 30.6 | 0.00 | 0.00 | 0.00 | 1 | 1016.0 |
| 20260510062533 | 12 | 40 | 17.7 | 33.8 | 0.00 | 0.00 | 0.00 | 1 | 1016.0 |
| 20260510061528 | 12 | 51 | 16.1 | 33.8 | 0.00 | 0.00 | 0.00 | 1 | 1016.1 |
| 20260510060524 | 12 | 32 | 14.5 | 32.2 | 0.00 | 0.00 | 0.00 | 1 | 1016.0 |
| 20260510055504 | 12 | 44 | 14.5 | 30.6 | 0.00 | 0.00 | 0.00 | 1 | 1016.0 |
| 20260510054439 | 11 | 69 | 14.5 | 30.6 | 0.00 | 0.00 | 0.00 | 1 | 1016.0 |
| 20260510053417 | 11 | 34 | 17.7 | 33.8 | 0.00 | 0.00 | 0.00 | 1 | 1016.1 |
| 20260510052351 | 11 | 5 | 16.1 | 33.8 | 0.00 | 0.00 | 0.00 | 1 | 1016.1 |
| 20260510051338 | 11 | 5 | 17.7 | 32.2 | 0.00 | 0.00 | 0.00 | 1 | 1016.2 |
| 20260510050319 | 11 | 57 | 17.7 | 30.6 | 0.00 | 0.00 | 0.00 | 1 | 1016.2 |
| 20260510045307 | 11 | 11 | 16.1 | 29.0 | 0.00 | 0.00 | 0.00 | 1 | 1016.1 |
| 20260510044236 | 11 | 25 | 17.7 | 29.0 | 0.00 | 0.00 | 0.00 | 1 | 1016.1 |
| 20260510043244 | 11 | 36 | 14.5 | 29.0 | 0.00 | 0.00 | 0.00 | 1 | 1016.0 |
| 20260510042223 | 11 | 36 | 14.5 | 29.0 | 0.00 | 0.00 | 0.00 | 1 | 1016.1 |
| 20260510040045 | 12 | 32 | 17.7 | 32.2 | 0.00 | 0.00 | 0.00 | 1 | 1016.0 |
| 20260510035110 | 12 | 37 | 16.1 | 29.0 | 0.00 | 0.00 | 0.00 | 1 | 1016.0 |
| 20260510034059 | 12 | 39 | 16.1 | 30.6 | 0.00 | 0.00 | 0.00 | 1 | 1016.0 |
| 20260510033110 | 12 | 38 | 16.1 | 30.6 | 0.00 | 0.00 | 0.00 | 1 | 1016.0 |
| 20260510032043 | 12 | 40 | 14.5 | 27.4 | 0.00 | 0.00 | 0.00 | 1 | 1016.1 |
| 20260510031046 | 12 | 15 | 14.5 | 27.4 | 0.00 | 0.00 | 0.00 | 1 | 1016.1 |
| 20260510024952 | 12 | 55 | 12.9 | 29.0 | 0.00 | 0.00 | 0.00 | 1 | 1016.0 |
| 20260510022831 | 12 | 57 | 11.3 | 27.4 | 0.00 | 0.00 | 0.00 | 1 | 1016.0 |
| 20260510021817 | 12 | 48 | 11.3 | 27.4 | 0.00 | 0.00 | 0.00 | 1 | 1016.1 |
| 20260510015731 | 12 | 40 | 9.7 | 24.1 | 0.00 | 0.00 | 0.00 | 1 | 1016.2 |
| 20260510014739 | 12 | 68 | 12.9 | 24.1 | 0.00 | 0.00 | 0.00 | 1 | 1016.2 |
| 20260510013802 | 12 | 45 | 9.7 | 22.5 | 0.00 | 0.00 | 0.00 | 1 | 1016.3 |
| 20260510012821 | 12 | 63 | 8.0 | 20.9 | 0.00 | 0.00 | 0.00 | 1 | 1016.4 |
| 20260510005459 | 12 | 71 | 8.0 | 20.9 | 0.00 | 0.00 | 0.00 | 1 | 1016.3 |
| 20260510004436 | 12 | 62 | 9.7 | 22.5 | 0.00 | 0.00 | 0.00 | 1 | 1016.2 |
| 20260510003434 | 12 | 59 | 9.7 | 22.5 | 0.00 | 0.00 | 0.00 | 1 | 1016.3 |
| 20260510002445 | 12 | 55 | 8.0 | 17.7 | 0.00 | 0.00 | 0.00 | 1 | 1016.4 |
| 20260510001456 | 12 | 37 | 8.0 | 17.7 | 0.00 | 0.00 | 0.00 | 1 | 1016.3 |
| 20260510000444 | 12 | 71 | 8.0 | 20.9 | 0.00 | 0.00 | 0.00 | 1 | 1016.4 |
| 20260509235501 | 12 | 75 | 8.0 | 20.9 | 0.00 | 0.00 | 0.00 | 1 | 1016.6 |
| 20260509234510 | 12 | 79 | 8.0 | 19.3 | 0.00 | 0.00 | 0.00 | 1 | 1016.5 |
| 20260509233523 | 12 | 84 | 6.4 | 19.3 | 0.00 | 0.00 | 0.00 | 1 | 1016.6 |
| 20260509232540 | 12 | 61 | 6.4 | 17.7 | 0.00 | 0.00 | 0.00 | 1 | 1016.7 |
| 20260509231518 | 12 | 73 | 8.0 | 17.7 | 0.00 | 0.00 | 0.00 | 1 | 1016.8 |